TimeCDT,TemperatureF,Dew PointF,Humidity,Sea Level PressureIn,VisibilityMPH,Wind Direction,Wind SpeedMPH,Gust SpeedMPH,PrecipitationIn,Events,Conditions,WindDirDegrees,DateUTC
12:53 AM,53.1,45.0,74,30.31,10.0,Calm,Calm,-,N/A,,Clear,0,2012-09-15 05:53:00
1:53 AM,52.0,46.0,80,30.31,10.0,Calm,Calm,-,N/A,,Clear,0,2012-09-15 06:53:00
2:53 AM,52.0,46.0,80,30.30,10.0,Calm,Calm,-,N/A,,Clear,0,2012-09-15 07:53:00
3:53 AM,51.1,46.0,83,30.30,10.0,SSW,3.5,-,N/A,,Clear,210,2012-09-15 08:53:00
4:53 AM,48.0,45.0,89,30.30,10.0,Calm,Calm,-,N/A,,Clear,0,2012-09-15 09:53:00
5:53 AM,46.0,44.1,93,30.31,10.0,Calm,Calm,-,N/A,,Clear,0,2012-09-15 10:53:00
6:53 AM,45.0,44.1,97,30.32,7.0,Calm,Calm,-,N/A,,Clear,0,2012-09-15 11:53:00
7:53 AM,51.1,48.0,89,30.33,9.0,East,3.5,-,N/A,,Clear,90,2012-09-15 12:53:00
8:53 AM,55.9,50.0,80,30.33,10.0,Calm,Calm,-,N/A,,Clear,0,2012-09-15 13:53:00
9:53 AM,62.1,52.0,70,30.32,10.0,Calm,Calm,-,N/A,,Clear,0,2012-09-15 14:53:00
10:53 AM,69.1,54.0,58,30.30,10.0,Calm,Calm,-,N/A,,Clear,0,2012-09-15 15:53:00
11:53 AM,72.0,53.1,51,30.28,10.0,Calm,Calm,-,N/A,,Clear,0,2012-09-15 16:53:00
12:53 PM,75.0,48.0,38,30.26,10.0,Variable,4.6,-,N/A,,Clear,0,2012-09-15 17:53:00
1:53 PM,75.9,46.0,35,30.23,10.0,Calm,Calm,-,N/A,,Clear,0,2012-09-15 18:53:00
2:53 PM,75.9,45.0,33,30.21,10.0,Variable,3.5,-,N/A,,Clear,0,2012-09-15 19:53:00
3:53 PM,77.0,45.0,32,30.20,10.0,Variable,3.5,-,N/A,,Clear,0,2012-09-15 20:53:00
4:53 PM,75.9,50.0,40,30.19,10.0,NNW,5.8,-,N/A,,Clear,340,2012-09-15 21:53:00
5:53 PM,73.0,50.0,44,30.18,10.0,NNE,3.5,-,N/A,,Clear,20,2012-09-15 22:53:00
6:53 PM,68.0,51.1,55,30.18,10.0,Calm,Calm,-,N/A,,Clear,0,2012-09-15 23:53:00
7:53 PM,62.1,52.0,70,30.17,10.0,Calm,Calm,-,N/A,,Clear,0,2012-09-16 00:53:00
8:53 PM,59.0,51.1,75,30.18,10.0,Calm,Calm,-,N/A,,Clear,0,2012-09-16 01:53:00
9:53 PM,55.9,50.0,80,30.17,10.0,Calm,Calm,-,N/A,,Clear,0,2012-09-16 02:53:00
10:53 PM,55.9,48.9,77,30.17,10.0,Calm,Calm,-,N/A,,Clear,0,2012-09-16 03:53:00
11:53 PM,51.1,48.0,89,30.16,10.0,Calm,Calm,-,N/A,,Clear,0,2012-09-16 04:53:00